Погода в Нерехте

Россия / Владимирская область     56°12′07″N   41°19′59″E
темп.,
°C
ветер,
м/с
пор.,
м/с
влажн.,
%
обл.,
%
осадки,
мм/ч
давл.,
гПа
погр.,
м
13 июня, вс
вс1300:00+15ююв239683 0.1 100748
03:00+14ю2296100 0.1 100720
06:00+16ю129366 0.0 1007127
09:00+21ю227263 0.0 1007685
12:00+21юз237462 1.2 1007876
15:00+23зюз2265100 2.7 10071123
18:00+22зюз127086 1.3 1007669
21:00+16ююз229036 2.9 100833
14 июня, пн
пн1400:00+15юз2695100 0.0 1009100
03:00+14юз24975 0.0 101174
06:00+16юз25925 0.0 1012147
09:00+22юз34665 0.0 1013697
12:00+25зюз34499 0.0 10131830
15:00+23зсз246236 0.1 1014650
18:00+23зюз237043 0.4 1013422
21:00+19юз228592 0.8 101427
15 июня, вт
вт1500:00+17зюз228874 0.0 101431
03:00+17юз239041 0.0 101478
06:00+18з12855 0.0 1015132
09:00+23зюз22635 0.0 1014643
12:00+26зюз23484 0.0 10121793
15:00+26зсз345198 0.1 10111368
18:00+23зсз1172100 0.1 101012
21:00+21зсз0174100 0.1 101011
16 июня, ср
ср1600:00+19зюз1181100 0.3 101014
03:00+17ссз2391100 0.6 101074
06:00+18ссз258894 0.2 1010186
09:00+21ссз236936 0.8 1010417
12:00+24сз4546100 0.0 10101628
15:00+22ссз77625 0.1 10111205
18:00+21с58512 0.0 10131568
21:00+14ссз38670 0.0 1015159
17 июня, чт
чт1700:00+11ссз3106773 0.0 1017186
03:00+10ссз3106925 0.0 1019187
06:00+12ссз38604 0.0 1020245
09:00+17ссз45420 0.0 1021926
12:00+20с35350 0.0 10221804
15:00+21с45364 0.0 10222045
18:00+20с35504 0.0 10231585
21:00+14ссз22750 0.0 102432